Погода в Тархуна

Ливия     32°26′09″N   13°38′16″E
темп.,
°C
ветер,
м/с
пор.,
м/с
влажн.,
%
обл.,
%
осадки,
мм/ч
давл.,
гПа
погр.,
м
10 августа, ср
ср1023:00+24ссв35870 0.0 1017243
02:00+23ю11920 0.0 101512
05:00+21сз11920 0.0 101511
08:00+24сз12770 0.0 1016189
11:00+29ссз33370 0.0 10161462
14:00+33ссз66240 0.0 10152210
17:00+31с76320 0.0 10141416
20:00+26с55590 0.0 1015405
11 августа, чт
чт1123:00+23всв22770 0.0 101632
02:00+22ююв12820 0.0 101512
05:00+21ю22820 0.0 101416
08:00+23ююв22630 0.0 1015134
11:00+29с22330 0.0 10151185
14:00+32с66320 0.0 10141904
17:00+31с65370 0.0 10131340
20:00+26ссв45620 0.0 1013438
12 августа, пт
пт1223:00+24в22760 0.0 101443
02:00+22ю22830 0.0 101317
05:00+21ююз22830 0.0 101315
08:00+24сз12630 0.0 1014159
11:00+29сз45390 0.0 10141191
14:00+32ссз88350 0.0 10131760
17:00+30с77410 0.0 10131278
20:00+25с56650 0.0 1014556
13 августа, сб
сб1323:00+23с34750 0.0 1015101
02:00+22в11800 0.0 101411
05:00+21зсз11850 0.0 101411
08:00+23сз22720 0.0 1016233
11:00+28с44460 0.0 10161269
14:00+32с75320 0.0 10151926
17:00+30с75340 0.0 10151388
20:00+26ссв45590 0.0 1015181
14 августа, вс
вс1423:00+23вюв11750 0.0 101511
02:00+23ю32680 0.0 101421
05:00+22ююз33660 0.0 101419
08:00+26зюз12360 0.0 101483
11:00+33зсз33210 0.0 1014863
14:00+37сз66170 0.0 10122191
17:00+37ссз810170 0.0 10111855
20:00+29с44320 0.0 101273